TimeCST,TemperatureF,Dew PointF,Humidity,Sea Level PressureIn,VisibilityMPH,Wind Direction,Wind SpeedMPH,Gust SpeedMPH,PrecipitationIn,Events,Conditions,WindDirDegrees,DateUTC
12:00 AM,84.2,75.2,74,29.62,-9999.0,SSE,17.9,-,N/A,,Clear,150,2013-08-16 16:00:00
12:30 AM,84.2,73.4,70,29.62,-9999.0,SSE,17.9,-,N/A,,Clear,150,2013-08-16 16:30:00
1:00 AM,84.2,73.4,70,29.62,-9999.0,SSE,15.7,-,N/A,,Clear,150,2013-08-16 17:00:00
1:30 AM,84.2,73.4,70,29.62,-9999.0,SSE,13.4,-,N/A,,Clear,150,2013-08-16 17:30:00
2:00 AM,84.2,75.2,74,29.62,-9999.0,SE,13.4,-,N/A,,Clear,140,2013-08-16 18:00:00
2:30 AM,84.2,75.2,74,29.62,-9999.0,SSE,13.4,-,N/A,,Clear,150,2013-08-16 18:30:00
3:00 AM,84.2,75.2,74,29.62,-9999.0,SSE,11.2,-,N/A,,Clear,150,2013-08-16 19:00:00
3:30 AM,84.2,75.2,74,29.62,-9999.0,SSE,8.9,-,N/A,,Clear,160,2013-08-16 19:30:00
4:00 AM,84.2,73.4,70,29.62,-9999.0,SSE,8.9,-,N/A,,Clear,150,2013-08-16 20:00:00
4:30 AM,84.2,73.4,70,29.62,-9999.0,SSE,8.9,-,N/A,,Clear,150,2013-08-16 20:30:00
5:00 AM,82.4,73.4,74,29.62,-9999.0,SSE,11.2,-,N/A,,Clear,150,2013-08-16 21:00:00
5:30 AM,82.4,75.2,79,29.62,-9999.0,SSE,11.2,-,N/A,,Clear,150,2013-08-16 21:30:00
6:00 AM,84.2,75.2,74,29.62,-9999.0,SSE,11.2,-,N/A,,Clear,150,2013-08-16 22:00:00
6:30 AM,84.2,75.2,74,29.62,-9999.0,SSE,13.4,-,N/A,,Clear,150,2013-08-16 22:30:00
7:00 AM,86.0,75.2,70,29.62,-9999.0,SSE,11.2,-,N/A,,Clear,150,2013-08-16 23:00:00
7:30 AM,87.8,73.4,62,29.65,-9999.0,South,11.2,-,N/A,,Clear,170,2013-08-16 23:30:00
8:00 AM,89.6,71.6,55,29.65,-9999.0,South,13.4,-,N/A,,Clear,180,2013-08-17 00:00:00
8:30 AM,89.6,73.4,59,29.65,-9999.0,South,11.2,-,N/A,,Clear,170,2013-08-17 00:30:00
9:00 AM,91.4,73.4,55,29.65,-9999.0,SSE,11.2,-,N/A,,Clear,160,2013-08-17 01:00:00
9:30 AM,91.4,73.4,55,29.65,-9999.0,SE,11.2,-,N/A,,Clear,140,2013-08-17 01:30:00
10:00 AM,93.2,73.4,52,29.65,-9999.0,South,8.9,-,N/A,,Clear,170,2013-08-17 02:00:00
10:30 AM,93.2,73.4,52,29.62,-9999.0,South,8.9,-,N/A,,Clear,170,2013-08-17 02:30:00
11:00 AM,91.4,73.4,55,29.62,6.2,South,11.2,-,N/A,,Scattered Clouds,180,2013-08-17 03:00:00
11:30 AM,93.2,71.6,49,29.62,6.2,SSE,11.2,-,N/A,,Scattered Clouds,150,2013-08-17 03:30:00
12:00 PM,95.0,69.8,44,29.62,6.2,SE,11.2,-,N/A,,Scattered Clouds,130,2013-08-17 04:00:00
12:30 PM,95.0,69.8,44,29.62,6.2,SSE,11.2,-,N/A,,Mostly Cloudy,150,2013-08-17 04:30:00
1:00 PM,95.0,69.8,44,29.59,6.2,SE,13.4,-,N/A,,Mostly Cloudy,130,2013-08-17 05:00:00
1:30 PM,95.0,69.8,44,29.59,6.2,SE,11.2,-,N/A,,Scattered Clouds,130,2013-08-17 05:30:00
2:00 PM,96.8,69.8,41,29.59,6.2,South,8.9,-,N/A,,Scattered Clouds,170,2013-08-17 06:00:00
2:30 PM,96.8,68.0,39,29.59,6.2,South,8.9,-,N/A,,Partly Cloudy,180,2013-08-17 06:30:00
3:00 PM,95.0,68.0,41,29.59,6.2,SSE,8.9,-,N/A,,Partly Cloudy,150,2013-08-17 07:00:00
3:30 PM,95.0,68.0,41,29.59,-9999.0,SE,13.4,-,N/A,,Clear,140,2013-08-17 07:30:00
4:00 PM,95.0,66.2,39,29.56,-9999.0,ESE,13.4,-,N/A,,Clear,120,2013-08-17 08:00:00
4:30 PM,95.0,66.2,39,29.56,-9999.0,SE,11.2,-,N/A,,Clear,140,2013-08-17 08:30:00
5:00 PM,93.2,64.4,38,29.56,-9999.0,SSE,13.4,-,N/A,,Clear,150,2013-08-17 09:00:00
5:30 PM,93.2,68.0,44,29.56,-9999.0,SE,13.4,-,N/A,,Clear,130,2013-08-17 09:30:00
6:00 PM,91.4,69.8,49,29.59,-9999.0,ESE,13.4,-,N/A,,Clear,120,2013-08-17 10:00:00
6:30 PM,89.6,71.6,55,29.59,-9999.0,SE,13.4,-,N/A,,Clear,130,2013-08-17 10:30:00
7:00 PM,87.8,73.4,62,29.59,-9999.0,SE,13.4,-,N/A,,Clear,130,2013-08-17 11:00:00
7:30 PM,87.8,73.4,62,29.59,-9999.0,SE,13.4,-,N/A,,Clear,130,2013-08-17 11:30:00
8:00 PM,87.8,73.4,62,29.62,-9999.0,SE,11.2,-,N/A,,Clear,140,2013-08-17 12:00:00
8:30 PM,86.0,71.6,62,29.62,-9999.0,SE,15.7,-,N/A,,Clear,140,2013-08-17 12:30:00
9:00 PM,86.0,73.4,66,29.62,-9999.0,SSE,13.4,-,N/A,,Clear,150,2013-08-17 13:00:00
9:30 PM,86.0,73.4,66,29.62,-9999.0,SE,11.2,-,N/A,,Clear,140,2013-08-17 13:30:00
10:00 PM,84.2,73.4,70,29.62,-9999.0,SE,11.2,-,N/A,,Clear,140,2013-08-17 14:00:00
10:30 PM,84.2,73.4,70,29.62,-9999.0,SE,11.2,-,N/A,,Clear,140,2013-08-17 14:30:00
11:00 PM,84.2,73.4,70,29.62,-9999.0,SE,11.2,-,N/A,,Clear,140,2013-08-17 15:00:00
11:30 PM,84.2,73.4,70,29.62,-9999.0,SE,11.2,-,N/A,,Clear,130,2013-08-17 15:30:00